Latest Coastal Weather Observations for Smithton

IDV60701

Issued at 11:05 am EDT Saturday 25 October 2014 (issued every 10 minutes, with the page automatically refreshed every 10 minutes)

About coastal observations | Map of coastal stations | Coastal observations for VIC | Marine services | Other Formats
Station Details ID: 091292 Name: SMITHTON AERODROME Lat: -40.83 Lon: 145.08 Height: 7.5 m
Data from the previous 72 hours. | See also: Recent months at Smithton
Date/Time
EDT
Temp

°C
Wind Pressure Rain
since 9am
mm
Weather Cloud Vis
km
Sea
Height
m
Swell
Dir
 
Speed
knots
Gust
knots
hPa Trend Height
m
Period
s
Dir
25/11:00am 15.3 SSW 13 18 1016.8 - 0.0 - - - - - - -
25/10:30am 15.1 S 13 19 1016.6 - 0.0 - - - - - - -
25/10:00am 15.2 S 11 16 1016.5 - 0.0 - - - - - - -
25/09:30am 14.3 SSW 12 15 1016.7 - 0.0 - - - - - - -
25/09:00am 13.7 SSW 9 12 1016.8 - 0.0 - - - - - - -
25/08:30am 13.1 SSW 9 13 1016.6 - 0.0 - - - - - - -
25/08:00am 13.0 SW 9 11 1016.3 - 0.0 - - - - - - -
25/07:30am 12.7 SW 9 11 1015.5 - 0.0 - - - - - - -
25/07:00am 12.4 SW 9 11 1015.0 - 0.0 - - - - - - -
25/06:30am 12.4 SW 11 16 1015.0 - 0.0 - - - - - - -
25/06:00am 12.6 SW 12 15 1014.7 - 0.0 - - - - - - -
25/05:30am 12.9 WSW 12 17 1014.2 - 0.0 - - - - - - -
25/05:00am 13.1 WSW 10 13 1013.8 - 0.0 - - - - - - -
25/04:30am 13.2 WSW 9 12 1013.4 - 0.0 - - - - - - -
25/04:00am 12.9 WSW 9 12 1013.2 - 0.0 - - - - - - -
25/03:30am 13.3 WSW 11 14 1013.1 - 0.0 - - - - - - -
25/03:00am 13.3 WSW 11 16 1012.9 - 0.0 - - - - - - -
25/02:30am 13.6 SW 12 15 1012.9 - 0.0 - - - - - - -
25/02:00am 13.7 WSW 12 15 1012.9 - 0.0 - - - - - - -
25/01:30am 13.8 WSW 11 15 1012.9 - 0.0 - - - - - - -
25/01:00am 13.9 WSW 12 17 1013.2 - 0.0 - - - - - - -
25/12:30am 13.9 WSW 14 17 1013.2 - 0.0 - - - - - - -
25/12:00am 14.1 WSW 12 15 1013.0 - 0.0 - - - - - - -
 
Date/Time
EDT
Temp

°C
Wind Pressure Rain
since 9am
mm
Weather Cloud Vis
km
Sea
Height
m
Swell
Dir
 
Speed
knots
Gust
knots
hPa Trend Height
m
Period
s
Dir
24/11:30pm 14.1 WSW 10 13 1012.4 - 0.0 - - - - - - -
24/11:00pm 14.1 WSW 9 11 1012.5 - 0.0 - - - - - - -
24/10:30pm 14.2 WSW 10 13 1012.5 - 0.0 - - - - - - -
24/10:00pm 14.1 W 9 11 1012.3 - 0.0 - - - - - - -
24/09:30pm 14.0 W 9 13 1012.0 - 0.0 - - - - - - -
24/09:00pm 13.7 WSW 9 11 1011.8 - 0.0 - - - - - - -
24/08:30pm 14.4 W 10 12 1011.4 - 0.0 - - - - - - -
24/08:00pm 14.5 CALM 0 0 1010.9 - 0.0 - - - - - - -
24/07:30pm 14.7 NNE 1 4 1010.8 - 0.0 - - - - - - -
24/07:00pm 14.8 NE 7 8 1010.8 - 0.0 - - - - - - -
24/06:30pm 15.0 NE 8 10 1010.5 - 0.0 - - - - - - -
24/06:00pm 15.3 ENE 10 14 1010.1 - 0.0 - - - - - - -
24/05:30pm 15.7 ENE 13 19 1009.5 - 0.0 - - - - - - -
24/05:00pm 15.6 E 14 19 1009.5 - 0.0 - - - - - - -
24/04:30pm 15.6 E 14 20 1010.0 - 0.0 - - - - - - -
24/04:00pm 15.6 ENE 13 22 1010.6 - 0.0 - - - - - - -
24/03:30pm 15.8 E 17 25 1010.3 - 0.0 - - - - - - -
24/03:00pm 15.8 E 19 26 1010.6 - 0.0 - - - - - - -
24/02:30pm 15.9 E 19 27 1011.1 - 0.0 - - - - - - -
24/02:01pm 15.6 E 20 30 1011.2 - 0.0 - - - - - - -
24/02:00pm 15.6 E 21 30 1011.1 - 0.0 - - - - - - -
24/01:38pm 15.5 E 20 30 1011.2 - 0.0 - - - - - - -
24/01:30pm 15.6 E 21 30 1011.2 - 0.0 - - - - - - -
24/01:16pm 15.4 E 22 32 1011.2 - 0.0 - - - - - - -
24/01:00pm 15.6 E 22 31 1011.7 - 0.0 - - - - - - -
24/12:37pm 15.6 E 19 29 1011.9 - 0.0 - - - - - - -
24/12:30pm 15.6 E 21 29 1011.8 - 0.0 - - - - - - -
24/12:08pm 15.5 E 21 31 1012.2 - 0.0 - - - - - - -
24/12:00pm 15.2 E 22 31 1012.2 - 0.0 - - - - - - -
24/11:40am 14.7 E 22 32 1012.6 - 0.0 - - - - - - -
24/11:30am 14.9 E 21 30 1012.9 - 0.0 - - - - - - -
24/11:00am 14.8 E 22 33 1013.3 - 0.0 - - - - - - -
24/10:32am 14.7 E 24 34 1013.9 - 0.0 - - - - - - -
24/10:30am 14.9 E 23 32 1013.9 - 0.0 - - - - - - -
24/10:00am 13.6 E 23 34 1014.2 - 0.0 - - - - - - -
24/09:30am 13.5 E 22 32 1014.3 - 0.0 - - - - - - -
24/09:00am 12.6 E 23 33 1014.9 - 0.0 - - - - - - -
24/08:40am 12.3 E 22 32 1015.1 - 0.0 - - - - - - -
24/08:30am 12.2 E 21 28 1015.5 - 0.0 - - - - - - -
24/08:01am 12.0 E 23 33 1015.3 - 0.0 - - - - - - -
24/08:00am 12.0 E 24 33 1015.3 - 0.0 - - - - - - -
24/07:30am 12.1 E 24 36 1015.6 - 0.0 - - - - - - -
24/07:25am 12.2 E 22 36 1015.4 - 0.0 - - - - - - -
24/07:00am 12.3 E 24 32 1016.0 - 0.0 - - - - - - -
24/06:44am 12.3 E 23 33 1015.9 - 0.0 - - - - - - -
24/06:30am 12.3 E 23 31 1016.1 - 0.0 - - - - - - -
24/06:00am 12.2 E 23 34 1016.5 - 0.0 - - - - - - -
24/05:30am 12.2 E 23 34 1016.8 - 0.0 - - - - - - -
24/05:00am 12.2 E 23 34 1017.1 - 0.0 - - - - - - -
24/04:30am 12.1 E 19 31 1017.2 - 0.0 - - - - - - -
24/04:03am 12.2 E 22 32 1017.4 - 0.0 - - - - - - -
24/04:00am 12.3 E 23 32 1017.2 - 0.0 - - - - - - -
24/03:30am 12.2 E 22 35 1017.9 - 0.0 - - - - - - -
24/03:17am 12.2 E 21 31 1018.3 - 0.0 - - - - - - -
24/03:00am 12.2 E 22 31 1018.5 - 0.0 - - - - - - -
24/02:34am 12.1 E 22 33 1018.8 - 0.0 - - - - - - -
24/02:30am 12.1 E 21 27 1018.9 - 0.0 - - - - - - -
24/02:01am 12.0 E 22 32 1019.1 - 0.0 - - - - - - -
24/02:00am 12.0 E 22 30 1019.3 - 0.0 - - - - - - -
24/01:37am 12.1 E 22 32 1019.8 - 0.0 - - - - - - -
24/01:30am 12.1 E 24 32 1019.9 - 0.0 - - - - - - -
24/01:01am 12.3 E 21 31 1020.5 - 0.0 - - - - - - -
24/01:00am 12.3 E 22 31 1020.6 - 0.0 - - - - - - -
24/12:30am 12.2 E 22 34 1020.7 - 0.0 - - - - - - -
24/12:00am 12.2 E 22 32 1021.1 - 0.0 - - - - - - -
 
Date/Time
EDT
Temp

°C
Wind Pressure Rain
since 9am
mm
Weather Cloud Vis
km
Sea
Height
m
Swell
Dir
 
Speed
knots
Gust
knots
hPa Trend Height
m
Period
s
Dir
23/11:30pm 12.2 ENE 19 32 1021.4 - 0.0 - - - - - - -
23/11:13pm 12.2 E 16 31 1021.4 - 0.0 - - - - - - -
23/11:00pm 12.1 E 18 24 1021.8 - 0.0 - - - - - - -
23/10:48pm 12.3 E 18 28 1021.8 - 0.0 - - - - - - -
23/10:30pm 12.4 ENE 18 26 1022.2 - 0.0 - - - - - - -
23/10:00pm 12.4 ENE 16 22 1022.4 - 0.0 - - - - - - -
23/09:30pm 12.6 ENE 15 21 1022.5 - 0.0 - - - - - - -
23/09:00pm 12.3 E 13 17 1022.2 - 0.0 - - - - - - -
23/08:30pm 12.5 ENE 12 15 1022.1 - 0.0 - - - - - - -
23/08:00pm 12.6 E 11 16 1021.9 - 0.0 - - - - - - -
23/07:30pm 13.2 E 13 17 1022.0 - 0.0 - - - - - - -
23/07:00pm 13.9 ENE 15 19 1021.9 - 0.0 - - - - - - -
23/06:30pm 14.4 ENE 16 22 1021.8 - 0.0 - - - - - - -
23/06:00pm 15.1 ENE 17 22 1021.8 - 0.0 - - - - - - -
23/05:30pm 15.8 E 15 22 1021.8 - 0.0 - - - - - - -
23/05:00pm 16.3 ENE 16 21 1021.8 - 0.0 - - - - - - -
23/04:30pm 16.5 ENE 17 21 1021.8 - 0.0 - - - - - - -
23/04:00pm 17.0 NE 16 20 1021.9 - 0.0 - - - - - - -
23/03:30pm 16.8 ENE 17 21 1022.1 - 0.0 - - - - - - -
23/03:00pm 17.2 NE 16 21 1022.3 - 0.0 - - - - - - -
23/02:30pm 16.9 NE 16 22 1022.5 - 0.0 - - - - - - -
23/02:00pm 16.8 NE 15 20 1022.5 - 0.0 - - - - - - -
23/01:30pm 16.6 NE 14 19 1022.5 - 0.0 - - - - - - -
23/01:00pm 15.3 NE 16 19 1022.7 - 0.0 - - - - - - -
23/12:30pm 16.2 NE 17 22 1022.6 - 0.0 - - - - - - -
23/12:00pm 17.2 NE 17 22 1022.4 - 0.0 - - - - - - -
23/11:30am 17.3 ENE 15 21 1022.6 - 0.0 - - - - - - -
23/11:00am 17.0 ENE 17 23 1022.5 - 0.0 - - - - - - -
23/10:30am 16.5 ENE 16 24 1022.4 - 0.0 - - - - - - -
23/10:00am 16.3 NE 10 15 1022.6 - 0.0 - - - - - - -
23/09:30am 15.0 NE 8 11 1022.4 - 0.0 - - - - - - -
23/09:00am 14.3 E 5 7 1022.1 - 0.0 - - - - - - -
23/08:30am 13.7 E 6 8 1021.9 - 0.0 - - - - - - -
23/08:00am 13.0 SSE 6 8 1021.2 - 0.0 - - - - - - -
23/07:30am 12.1 S 7 9 1020.9 - 0.0 - - - - - - -
23/07:00am 11.2 S 9 11 1020.5 - 0.0 - - - - - - -
23/06:30am 10.5 S 7 8 1020.2 - 0.0 - - - - - - -
23/06:00am 10.1 S 8 9 1019.5 - 0.0 - - - - - - -
23/05:30am 10.6 S 9 11 1018.9 - 0.0 - - - - - - -
23/05:00am 10.7 S 9 11 1018.6 - 0.0 - - - - - - -
23/04:30am 11.2 S 8 9 1018.2 - 0.0 - - - - - - -
23/04:00am 11.4 S 9 11 1017.9 - 0.0 - - - - - - -
23/03:30am 11.5 S 9 11 1017.6 - 0.0 - - - - - - -
23/03:00am 12.5 S 9 11 1017.6 - 0.0 - - - - - - -
23/02:30am 12.9 SSW 15 17 1017.1 - 0.0 - - - - - - -
23/02:00am 12.9 SSW 13 17 1017.1 - 0.0 - - - - - - -
23/01:30am 13.0 SSW 12 15 1017.3 - 0.0 - - - - - - -
23/01:00am 13.2 SSW 14 17 1017.3 - 0.0 - - - - - - -
23/12:30am 13.2 SSW 13 17 1017.4 - 0.0 - - - - - - -
23/12:00am 13.1 SSW 13 19 1017.6 - 0.0 - - - - - - -
 
Date/Time
EDT
Temp

°C
Wind Pressure Rain
since 9am
mm
Weather Cloud Vis
km
Sea
Height
m
Swell
Dir
 
Speed
knots
Gust
knots
hPa Trend Height
m
Period
s
Dir
22/11:30pm 13.4 SSW 11 13 1017.9 - 0.0 - - - - - - -
22/11:00pm 13.0 SW 10 12 1018.1 - 0.0 - - - - - - -
22/10:30pm 12.4 SW 8 9 1017.9 - 0.0 - - - - - - -
22/10:00pm 12.8 SSW 9 10 1017.8 - 0.0 - - - - - - -
22/09:30pm 13.4 SW 10 13 1017.3 - 0.0 - - - - - - -
22/09:00pm 11.8 SW 6 8 1017.6 - 0.0 - - - - - - -
22/08:30pm 11.4 WNW 5 6 1017.1 - 0.0 - - - - - - -
22/08:00pm 12.9 WNW 5 6 1016.9 - 0.0 - - - - - - -
22/07:30pm 14.5 WSW 5 5 1016.8 - 0.0 - - - - - - -
22/07:00pm 15.1 W 6 8 1016.9 - 0.0 - - - - - - -
22/06:30pm 15.2 N 3 6 1016.9 - 0.0 - - - - - - -
22/06:00pm 15.4 NE 2 17 1016.6 - 0.0 - - - - - - -
22/05:57pm 15.4 NE 2 17 1016.4 - 0.0 - - - - - - -
22/05:50pm 15.3 E 12 17 1014.4 - 0.0 - - - - - - -
22/05:30pm 15.6 N 6 11 1016.4 - 0.0 - - - - - - -
22/05:16pm 15.4 ENE 11 17 1014.6 - 0.0 - - - - - - -
22/05:00pm 15.9 ENE 6 8 1016.6 - 0.0 - - - - - - -
22/04:30pm 15.6 SSE 4 17 1016.7 - 0.0 - - - - - - -
22/04:00pm 16.3 ENE 11 15 1016.6 - 0.0 - - - - - - -
22/03:30pm 17.2 ENE 12 15 1016.4 - 0.0 - - - - - - -
22/03:00pm 16.9 ENE 15 18 1016.6 - 0.0 - - - - - - -
22/02:30pm 17.4 ENE 16 19 1016.8 - 0.0 - - - - - - -
22/02:00pm 17.6 ENE 16 21 1017.1 - 0.0 - - - - - - -
22/01:36pm 17.8 ENE 17 27 1017.3 - 0.0 - - - - - - -
22/01:30pm 18.0 ENE 19 24 1017.4 - 0.0 - - - - - - -
22/01:00pm 17.2 ENE 18 22 1017.6 - 0.0 - - - - - - -
22/12:30pm 16.3 ENE 18 22 1018.0 - 0.0 - - - - - - -
22/12:00pm 17.1 ENE 17 23 1018.6 - 0.0 - - - - - - -
22/11:30am 17.3 E 19 25 1019.2 - 0.0 - - - - - - -

Other Formats:

Comma delimited format used in spreadsheet applications
http://www.bom.gov.au/fwo/IDV60701/IDV60701.94953.axf

JavaScript Object Notation format (JSON) in row-major order
http://www.bom.gov.au/fwo/IDV60701/IDV60701.94953.json